Regional Weather Roundup
Issued by NWS

Home | Current Version | Previous Version | Graphics & Text | Print | Product List | Glossary On
Versions: 1 2 3 4 5 6 7 8 9 10 11 12 13 14 15 16 17 18 19 20 21 22 23 24 25 26 27 28 29 30 31 32 33 34 35 36 37 38 39 40 41 42 43 44 45 46 47 48 49 50
000
ASUS43 KDMX 171401
RWRIA

WEATHER ROUNDUP FOR IOWA
NATIONAL WEATHER SERVICE DES MOINES IA
900 AM CDT THU AUG 17 2017

NOTE: "FAIR" INDICATES FEW OR NO CLOUDS BELOW 12,000 FEET WITH NO
SIGNIFICANT WEATHER AND/OR OBSTRUCTIONS TO VISIBILITY.

* - THESE STATIONS ARE NOT NWS STATIONS...THUS NOT UNDER NWS
QUALITY CONTROL.  THEY ALSO DO NOT REPORT WEATHER SUCH
AS PRECIPITATION OR FOG.

IAZ001>003-012>014-020>022-031>034-043>046-171500-
   NORTHWEST IOWA

CITY           SKY/WX    TMP DP  RH WIND       PRES   REMARKS
CARROLL *      CLOUDY    68  64  88 W14G24    29.84R
CHEROKEE *     CLOUDY    64  62  91 W12G17    29.85R
DENISON *      CLOUDY    66  61  82 W16G22    29.88S
LE MARS *      PTSUNNY   64  61  88 W13G20    29.87S
ORANGE CITY *  PTSUNNY   66  63  88 NW15G21   29.86S
SHELDON *      CLOUDY    64  59  82 W14G21    29.82S
SIOUX CITY     SUNNY     67  62  84 W10       29.88S
SPENCER        CLOUDY    65  61  87 W20G26    29.80R
STORM LAKE *   MOSUNNY   63  63 100 W15G23    29.84R FOG
$$

IAZ055>058-069>071-079>083-090>094-171500-
   SOUTHWEST IOWA

CITY           SKY/WX    TMP DP  RH WIND       PRES   REMARKS
ATLANTIC *     CLOUDY    66  63  88 W13       29.87S
AUDUBON *      CLOUDY    66  63  88 W7        29.86F
CLARINDA *     SUNNY     68  63  83 NW13      29.91S
COUNCIL BLFS * SUNNY     66  63  88 NW10G18   29.90S
CRESTON *      CLOUDY    66  63  88 W16       29.88S
HARLAN  *      CLOUDY    66  63  88 NW14G21   29.90F
LAMONI         SUNNY     69  64  84 W15       29.86F
RED OAK *      PTSUNNY   66  63  88 NW12      29.90R
SHENANDOAH *   SUNNY     68  63  83 W9G17     29.91S
$$

IAZ047>049-059>061-072>074-084-171500-
   CENTRAL IOWA

CITY           SKY/WX    TMP DP  RH WIND       PRES   REMARKS
AMES           CLOUDY    70  67  90 W15G24    29.79R
ANKENY *       PTSUNNY   72  64  78 W14       29.81S
BOONE *        CLOUDY    70  64  83 W13G23    29.80R
CHARITON *     MOSUNNY   70  64  83 W14G20    29.82F
DES MOINES     MOSUNNY   72  64  76 W16G22    29.80S
GRINNELL*      CLOUDY    68  64  86 W12       29.80F
KNOXVILLE *    SUNNY     70  63  78 W13G18    29.80S
MARSHALLTOWN   CLOUDY    69  66  90 W14       29.76S
NEWTON *       CLOUDY    70  64  83 W14G21    29.80S
PELLA *        PTSUNNY   71  64  78 W13       29.81F
PERRY *        CLOUDY    70  66  87 W13G18    29.82F
$$

IAZ004>006-015-016-023>025-035-036-171500-
   NORTH CENTRAL IOWA

CITY           SKY/WX    TMP DP  RH WIND       PRES   REMARKS
ALGONA *       CLOUDY    68  66  94 W20       29.77R
CLARION *      CLOUDY    68  68 100 W16G26    29.76S
ESTHERVILLE    CLOUDY    65  65 100 W13G21    29.77R
FORT DODGE *   CLOUDY    66  63  88 W13G22    29.80S
MASON CITY     CLOUDY    68  63  84 W21G31    29.73R
FOREST CITY *  CLOUDY    68  64  88 W16G26    29.72S
WEBSTER CITY * CLOUDY    70  64  83 W14G23    29.77R
IOWA FALLS *   CLOUDY    70  65  85 W17G23    29.77S
$$

IAZ007>011-017>019-026>030-037>042-050>054-066-171500-
   NORTHEAST IOWA

CITY           SKY/WX    TMP DP  RH WIND       PRES   REMARKS
CEDAR RAPIDS   CLOUDY    69  65  86 W13       29.75F
CHARLES CITY * CLOUDY    70  64  83 SW14G28   29.69F
CLINTON *      CLOUDY    73  67  81 W18       29.76S
DECORAH *      PTSUNNY   70  64  83 SW10G21   29.65S
DUBUQUE        CLOUDY    68  64  87 SW14G23   29.74S
MONTICELLO *   CLOUDY    68  64  88 W16       29.73F
OELWEIN *      CLOUDY    70  66  88 W15G24    29.72S
WATERLOO       MOSUNNY   71  64  78 W15G28    29.72S
$$

IAZ064-065-067-068-078-171500-
   EAST CENTRAL IOWA

CITY           SKY/WX    TMP DP  RH WIND       PRES   REMARKS
DAVENPORT      PTSUNNY   73  66  78 W18G26    29.79R
IOWA CITY      MOSUNNY   73  65  75 W10       29.78F
MUSCATINE *    CLOUDY    72  64  78 W15       29.79S
QUAD CITIES    PTSUNNY   75  67  76 SW10G21   29.76F
$$

IAZ062-063-075>077-085>089-095>099-171500-
   SOUTHEAST IOWA

CITY           SKY/WX    TMP DP  RH WIND       PRES   REMARKS
BURLINGTON     CLOUDY    73  69  87 SW15G22   29.81R
FAIRFIELD *    MOSUNNY   72  64  78 W8G17     29.80F
FORT MADISON * CLOUDY    73  70  88 SW10      29.83R
KEOKUK *       CLOUDY    73  68  83 SW12G17   29.82S
OSKALOOSA *      N/A     71  64  79 W13G20    29.81S
OTTUMWA        MOSUNNY   72  64  76 W14G23    29.80F
WASHINGTON *   MOSUNNY   70  66  88 SW12G17   29.80F
$$

ABBREVIATIONS USED IN REMARKS
   TC - TEMPERATURES IN CELSIUS
  WCI - WIND CHILL INDEX
   HX - HEAT INDEX
  VSB - VISIBILITY
$$





USA.gov is the U.S. government's official web portal to all federal, state and local government web resources and services.